Weather History for Hanford, CA

Change the Weather History Date:

Saturday, November 16, 2013

  Actual Average Record
Temperature  
Mean Temperature 53 °F 52 °F  
Max Temperature 69 °F 64 °F 81 °F (2008)
Min Temperature 37 °F 39 °F 37 °F (2009)
Degree Days  
Heating Degree Days 12    
Month to date heating degree days 128  
Since 1 July heating degree days 214  
Cooling Degree Days 0    
Month to date cooling degree days 0  
Year to date cooling degree days 2057  
Growing Degree Days 2 (Base 50)    
Moisture  
Dew Point 37 °F    
Average Humidity 61    
Maximum Humidity 92    
Minimum Humidity 30    
Precipitation  
Precipitation 0.00 in 0.04 in 0.02 in (1999)
Month to date precipitation 0.00 0.65  
Year to date precipitation 1.61 8.12  
Since 1 July precipitation 0.01 1.36  
Snow  
Snow 0.00 in - - ()
Month to date snowfall 0.0  
Since 1 July snowfall 0.0  
Since 1 September snowfall 0.0  
Snow Depth 0.00 in    
Sea Level Pressure  
Sea Level Pressure 29.84 in    
Wind  
Wind Speed 4 mph (ENE)    
Max Wind Speed 10 mph    
Max Gust Speed 12 mph    
Visibility 8 miles    
Events      
T = Trace of Precipitation, MM = Missing Value Source: NWS Daily Summary

Daily Weather History Graph

Daily Weather History Graph

Search for Another Location

Airport:

Trip Planner

Search our weather history database for the weather conditions in past years. The results will help you decide how hot, cold, wet, or windy it might be!

Date:

Astronomy

Nov. 16, 2013 Rise Set
Actual Time 6:37 AM PST 4:49 PM PST
Civil Twilight 6:09 AM PST 5:16 PM PST
Nautical Twilight 5:38 AM PST 5:47 PM PST
Astronomical Twilight 5:07 AM PST 6:18 PM PST
Moon 4:27 PM PST (11/16) 5:39 AM PST (11/16)
Length of Visible Light 11h 07m
Length of Day
10h 12m
Waxing Gibbous, 99% of the Moon is Illuminated
Nov 16
Waxing Gibbous
Nov 17
Full
Nov 25
Last Quarter
Dec 2
New
Dec 9
First Quarter

Hourly Weather History & Observations

Time (PST) Temp. Windchill Dew Point Humidity Pressure Visibility Wind Dir Wind Speed Gust Speed Precip Events Conditions
12:53 AM 43.0 °F - 37.0 °F 80% 29.81 in 9.0 mi Calm Calm - N/A   Clear
1:53 AM 41.0 °F - 36.0 °F 82% 29.79 in 9.0 mi Calm Calm - N/A   Clear
2:53 AM 39.9 °F - 34.0 °F 79% 29.79 in 9.0 mi Calm Calm - N/A   Clear
3:53 AM 39.9 °F 37.8 °F 36.0 °F 86% 29.80 in 6.0 mi ESE 3.5 mph - N/A   Clear
4:53 AM 39.0 °F - 36.0 °F 89% 29.80 in 6.0 mi Calm Calm - N/A   Clear
5:53 AM 39.0 °F - 36.0 °F 89% 29.82 in 6.0 mi Calm Calm - N/A   Clear
6:53 AM 37.9 °F 35.5 °F 35.1 °F 89% 29.84 in 5.0 mi ESE 3.5 mph - N/A   Clear
7:53 AM 43.0 °F 41.3 °F 37.0 °F 80% 29.86 in 6.0 mi SE 3.5 mph - N/A   Haze
8:53 AM 48.9 °F - 37.9 °F 66% 29.87 in 7.0 mi SSE 4.6 mph - N/A   Clear
9:53 AM 54.0 °F - 37.9 °F 55% 29.87 in 8.0 mi Variable 3.5 mph - N/A   Clear
10:53 AM 59.0 °F - 39.0 °F 48% 29.86 in 8.0 mi ESE 3.5 mph - N/A   Clear
11:53 AM 63.0 °F - 39.0 °F 41% 29.83 in 9.0 mi Variable 3.5 mph - N/A   Clear
12:53 PM 66.0 °F - 36.0 °F 33% 29.82 in 9.0 mi Variable 5.8 mph - N/A   Clear
1:53 PM 66.9 °F - 36.0 °F 32% 29.80 in 10.0 mi ESE 4.6 mph - N/A   Clear
2:53 PM 66.9 °F - 36.0 °F 32% 29.80 in 9.0 mi SE 4.6 mph - N/A   Clear
3:53 PM 68.0 °F - 36.0 °F 31% 29.81 in 9.0 mi ENE 3.5 mph - N/A   Clear
4:53 PM 63.0 °F - 37.9 °F 40% 29.82 in 8.0 mi NNE 4.6 mph - N/A   Clear
5:53 PM 57.9 °F - 37.0 °F 46% 29.84 in 8.0 mi Calm Calm - N/A   Clear
6:53 PM 54.0 °F - 37.0 °F 53% 29.86 in 8.0 mi Calm Calm - N/A   Clear
7:53 PM 57.9 °F - 37.9 °F 47% 29.89 in 9.0 mi NW 8.1 mph - N/A   Clear
8:53 PM 53.1 °F - 37.9 °F 57% 29.91 in 7.0 mi NNW 6.9 mph - N/A   Clear
9:53 PM 52.0 °F - 37.9 °F 59% 29.91 in 7.0 mi NNW 6.9 mph - N/A   Clear
10:53 PM 51.1 °F - 39.0 °F 63% 29.92 in 10.0 mi NW 8.1 mph - N/A   Clear
11:53 PM 48.9 °F - 39.9 °F 71% 29.94 in 7.0 mi NNW 5.8 mph - N/A   Clear